Theta_e
301 301 301 302 302 302 303 303 304 305 307 308 309 310 314 316 311 304 305 307 303 306 309 308 308 307 305 305 305 305 307 306 304 305 304 303 305 306 305 305 303 303 304 304 305 304 302 302 303 303 302 300 298 299 300 300 298 298 298 298 298 298 297 298 303 301 298 299 297 295 295 296 297 296 295 297 297 296 297 297 295 296 297 296 293 293 297
301 301 301 301 302 302 302 303 304 304 305 307 309 310 312 311 307 305 305 304 305 312 313 309 306 305 304 305 305 304 305 306 306 305 303 303 305 305 304 304 303 303 304 304 303 302 301 301 300 301 302 300 300 301 300 299 298 298 297 297 298 299 297 297 302 302 300 302 301 299 298 296 296 296 295 295 296 295 295 294 293 295 296 292 290 293 296
301 301 301 302 302 302 303 303 303 303 304 305 309 311 311 310 308 306 304 302 306 311 310 306 306 307 308 307 306 306 305 304 305 304 303 303 303 303 302 302 303 304 304 304 302 301 301 301 299 300 301 300 300 302 301 298 299 300 300 297 297 301 301 297 298 297 295 298 299 299 301 298 295 295 295 294 295 294 293 293 294 296 296 291 290 292 292
301 301 301 302 302 302 303 303 302 303 304 306 308 308 310 313 312 311 308 303 305 309 310 309 308 308 311 309 306 307 306 304 304 304 303 303 304 304 302 303 304 304 304 304 303 301 301 301 302 302 302 301 300 302 302 299 299 302 301 298 297 301 302 297 298 298 295 295 296 296 299 297 294 295 295 295 295 293 293 294 296 298 295 291 291 291 289
301 301 301 302 302 302 302 302 303 303 304 307 308 306 309 314 312 310 310 306 307 312 313 312 310 308 311 309 304 305 306 304 304 304 301 302 304 303 303 304 304 304 304 304 303 302 302 302 302 301 300 301 301 300 301 300 301 302 300 297 296 299 300 297 296 298 296 295 295 295 296 296 294 294 296 296 295 294 293 294 296 295 292 291 292 291 289
301 301 301 301 302 302 302 303 304 304 305 306 308 308 308 311 309 305 306 307 310 312 310 310 310 309 311 309 305 306 308 305 305 305 304 304 303 303 304 304 304 304 304 304 303 304 303 302 301 300 299 301 302 300 299 300 300 299 297 296 295 296 299 297 294 296 296 294 293 293 294 295 294 294 295 295 296 295 294 295 295 292 291 291 291 290 290
301 301 301 301 302 302 302 303 304 306 307 305 307 307 304 307 308 304 304 307 307 307 307 308 308 309 313 311 306 306 307 303 302 303 306 306 303 304 305 303 304 306 305 306 307 305 303 302 302 301 300 299 300 299 297 298 299 296 295 296 294 295 301 300 295 296 297 294 294 295 294 295 294 294 294 294 295 295 294 294 294 292 291 291 290 290 291
301 301 301 301 302 302 302 303 303 306 307 304 306 307 305 308 309 305 306 309 307 306 307 308 307 308 311 310 305 305 306 303 301 301 304 306 305 305 305 303 303 305 306 309 308 303 301 302 301 301 300 299 300 299 296 295 298 298 296 295 293 293 297 299 295 295 297 296 297 297 295 295 294 293 293 293 294 294 293 292 292 292 292 292 291 290 290
301 301 302 301 302 302 303 303 303 305 306 304 306 305 304 305 305 303 306 308 306 307 308 310 312 311 308 308 306 306 304 302 303 302 300 303 305 303 303 304 302 302 304 306 304 299 299 300 299 300 300 299 299 298 295 294 296 298 296 295 295 293 295 299 296 294 297 298 296 296 295 293 293 293 293 292 293 294 294 293 293 293 293 292 291 289 288
301 301 301 302 302 302 303 303 303 305 305 304 304 304 304 304 303 304 308 308 306 308 309 311 314 309 304 304 305 304 304 302 304 304 300 300 302 300 301 303 302 304 306 305 301 300 299 297 296 297 297 296 295 295 295 294 295 297 296 295 295 294 295 298 295 294 299 299 294 293 293 293 296 298 295 293 293 293 294 293 292 292 291 291 291 290 288
301 301 301 302 302 302 303 303 303 304 305 303 303 304 305 307 306 310 315 312 305 306 309 310 310 305 303 304 304 304 305 304 304 305 303 301 299 299 301 303 303 306 306 300 296 296 296 295 295 294 294 294 294 294 295 295 294 296 295 294 294 295 295 296 293 293 300 301 295 292 292 295 299 296 293 293 294 294 293 292 292 291 290 290 290 289 288
301 301 301 302 302 302 302 303 303 304 304 303 304 305 307 308 308 313 321 315 304 304 308 305 303 303 302 303 303 303 304 303 302 303 304 301 299 299 301 304 306 304 299 295 294 294 294 294 294 294 294 294 295 296 296 295 295 295 293 292 294 295 295 295 294 293 297 300 296 292 295 300 297 291 289 291 292 291 292 291 291 289 289 289 289 288 288
301 301 301 301 302 302 302 302 303 303 303 304 304 306 306 305 305 309 316 314 305 304 305 301 298 301 303 302 302 302 301 300 301 302 302 301 301 301 299 301 303 299 294 295 295 295 296 298 297 297 296 295 296 297 297 297 297 295 292 291 293 293 292 294 295 295 296 297 294 292 295 298 294 290 290 290 290 289 290 290 291 289 289 289 288 288 287
300 300 301 301 301 301 301 302 302 302 302 303 304 305 305 305 307 310 312 311 304 299 301 303 301 301 302 301 300 300 299 299 301 301 300 300 302 300 297 297 297 295 293 295 296 297 299 300 301 301 300 298 298 298 298 298 297 295 293 292 291 290 291 292 293 294 294 294 294 294 293 293 295 293 291 290 290 290 289 290 290 289 289 289 287 287 287
300 300 300 300 300 301 301 301 302 302 302 302 303 305 305 304 306 306 304 305 304 300 302 306 304 302 302 301 301 302 300 300 301 300 298 298 299 297 295 294 294 293 293 295 298 300 298 298 301 303 301 301 299 297 299 299 296 294 293 293 291 289 290 291 292 294 295 293 294 295 293 294 299 295 288 287 289 288 288 289 288 288 289 288 286 287 287
299 299 299 299 300 300 300 301 301 301 302 302 302 303 304 303 303 301 299 302 308 307 302 299 300 302 302 300 300 303 303 302 302 301 300 299 298 297 295 293 293 294 295 297 299 299 298 298 300 300 300 300 297 296 298 298 295 293 291 291 291 290 290 290 290 293 295 292 292 294 293 294 296 292 286 286 287 287 287 289 290 290 288 286 287 287 287
299 299 299 299 299 300 300 300 301 300 301 302 302 303 302 301 302 301 301 305 310 305 296 293 297 302 304 301 301 302 304 303 301 303 304 302 299 297 296 294 294 294 296 300 300 298 298 299 298 299 301 300 295 296 298 295 295 295 292 291 291 291 291 292 292 293 294 293 293 294 294 293 293 290 287 286 286 286 288 290 292 291 287 285 286 287 286
299 299 299 299 299 299 299 299 300 300 301 301 302 303 301 301 302 300 302 308 310 303 292 290 296 302 302 301 301 301 301 301 301 303 303 299 298 299 299 297 296 295 296 299 300 299 299 300 299 299 301 299 294 295 297 295 295 297 295 293 294 294 293 292 293 294 294 293 293 293 294 295 292 288 286 285 285 286 289 291 292 290 287 286 286 285 285
299 299 299 299 299 299 299 299 299 300 300 301 301 301 299 300 301 298 301 308 311 303 292 288 293 297 294 294 298 298 296 298 302 304 302 299 298 298 297 296 296 296 296 297 300 299 299 300 300 298 299 301 298 295 295 296 296 295 294 293 295 297 296 293 292 293 293 293 293 292 294 295 289 285 285 285 286 289 291 291 290 289 288 287 285 285 285
298 298 298 298 299 298 298 298 299 299 299 300 301 300 297 298 299 298 301 304 300 297 292 288 291 293 291 293 298 299 298 299 302 304 304 301 297 296 299 300 297 297 296 296 299 300 298 300 301 297 299 302 299 294 296 298 297 294 293 294 296 297 296 296 296 295 292 292 292 292 295 294 286 284 286 285 287 293 293 289 288 288 288 287 286 285 285
298 298 298 298 298 298 298 298 298 298 299 299 300 299 297 296 298 298 298 299 298 298 295 290 290 292 291 291 293 294 297 300 300 301 302 299 296 297 302 302 299 299 299 297 299 300 298 299 300 298 298 299 296 295 298 299 299 295 292 293 296 294 293 297 299 296 293 292 293 294 296 292 285 287 291 289 287 290 291 289 288 288 287 286 286 285 285
297 297 297 297 298 297 298 298 297 298 298 298 299 300 297 295 295 297 297 297 295 295 293 289 289 290 289 290 290 289 292 293 293 295 298 297 296 297 299 299 297 298 298 296 298 300 298 298 298 297 298 298 296 298 298 297 298 297 291 291 295 295 295 296 296 295 295 294 294 293 292 289 286 287 290 290 288 288 288 287 288 287 286 286 286 285 285
298 297 297 297 298 297 298 298 297 298 297 297 298 298 296 295 295 296 296 295 291 290 291 289 291 291 289 289 289 289 290 290 290 291 293 296 298 296 295 297 297 296 296 295 297 300 298 297 297 295 297 298 296 297 297 295 298 298 294 293 295 294 292 292 292 294 294 291 291 291 290 289 288 286 287 288 288 288 287 287 287 287 286 286 285 285 285
298 298 297 297 297 297 297 297 297 297 297 297 298 297 296 296 296 296 296 296 294 296 295 291 292 294 292 290 289 289 289 289 289 290 290 293 297 297 296 295 293 295 296 293 292 294 294 295 295 293 295 297 295 294 296 296 297 297 296 297 296 292 288 289 290 292 291 290 291 291 290 290 290 288 287 287 287 286 287 287 287 286 286 286 285 284 284
298 298 298 298 298 298 298 297 297 297 297 297 297 297 297 298 298 298 299 300 302 305 303 297 293 291 289 289 289 289 289 288 288 289 289 290 293 296 296 293 291 294 295 291 289 291 293 294 294 293 294 296 294 293 295 295 295 294 293 294 296 292 289 289 290 289 289 290 291 290 289 289 289 288 288 287 287 287 287 286 286 286 285 284 283 282 282
298 298 298 298 298 298 298 298 297 297 297 297 297 297 297 298 298 298 299 299 300 304 306 302 295 290 289 290 290 289 289 289 288 288 289 289 290 291 292 291 290 290 290 288 289 293 294 294 294 294 296 296 293 293 295 295 293 292 291 291 292 291 289 290 291 289 289 289 289 289 289 289 289 288 288 288 288 288 288 287 286 285 285 283 282 280 280
297 297 298 298 298 298 298 298 298 298 297 297 297 297 297 297 297 297 298 299 301 306 311 306 296 290 289 290 290 289 289 289 289 288 288 289 288 288 289 290 290 290 290 289 290 292 292 292 293 295 297 294 290 291 293 292 290 291 291 290 289 289 290 290 290 290 290 290 290 290 290 290 290 290 290 290 289 289 288 287 286 285 285 284 283 281 279
297 297 297 297 297 297 298 298 298 298 298 297 298 297 296 296 296 296 297 298 300 305 307 301 294 292 292 292 290 289 289 289 289 289 289 287 287 288 289 289 290 291 291 292 292 292 292 293 295 296 295 292 290 291 292 289 290 292 292 290 288 289 291 291 291 292 291 290 290 290 289 289 289 289 290 291 289 288 288 287 286 285 284 283 283 282 280
297 297 297 297 297 297 298 298 299 299 299 298 298 298 297 296 295 296 297 296 296 298 299 298 295 294 295 294 290 289 289 289 288 288 288 287 287 287 288 289 290 291 291 292 293 294 294 295 295 294 291 289 290 293 292 291 293 294 293 291 290 290 290 290 291 291 290 290 291 290 289 289 289 289 291 289 286 286 288 287 285 284 282 281 281 281 281
296 296 296 297 297 297 297 298 298 299 300 299 299 303 306 301 296 295 296 297 296 298 303 307 303 295 292 291 291 289 289 288 288 288 287 287 287 287 288 289 289 289 289 291 291 293 294 294 293 291 288 288 290 293 292 292 294 295 293 292 291 290 289 289 289 289 289 290 290 289 289 289 288 288 288 285 282 283 286 285 284 283 281 280 280 279 278
296 297 297 297 298 297 297 298 297 298 300 300 301 309 312 304 297 295 296 297 296 298 304 307 301 294 292 292 291 291 290 288 288 288 287 287 288 288 288 289 288 288 290 292 291 292 293 294 293 291 289 289 292 294 293 292 294 295 294 293 292 291 290 289 288 288 288 289 288 288 288 288 287 286 287 286 283 283 284 283 282 281 281 280 279 278 278
298 298 298 298 298 298 298 298 297 297 299 299 299 302 302 298 297 295 295 297 296 298 307 311 301 296 299 297 291 290 291 290 288 289 289 289 289 289 288 288 288 289 290 292 292 292 292 293 293 292 290 290 291 292 291 291 293 294 293 292 292 291 290 290 289 288 288 287 287 288 288 288 288 288 288 286 283 281 282 282 281 280 280 279 278 278 277
298 298 297 298 298 297 298 298 297 297 298 297 297 297 296 296 296 295 295 297 295 296 306 312 304 298 300 296 291 289 291 291 290 290 291 291 289 289 289 288 288 289 290 291 293 293 291 291 291 291 289 289 289 290 290 291 292 291 291 291 291 290 289 289 289 288 288 287 287 288 289 290 288 286 284 282 281 280 281 280 279 279 278 277 277 277 276
297 298 298 298 297 297 298 298 297 298 298 296 296 296 295 296 296 295 295 297 295 296 302 306 304 302 299 297 296 292 289 290 294 293 292 291 289 289 292 291 289 290 291 291 291 291 290 290 290 290 288 287 287 289 290 291 290 289 289 289 289 289 289 289 289 289 289 288 288 288 287 286 284 283 282 283 281 280 279 279 278 278 278 278 277 276 274
297 297 298 298 297 297 298 298 298 298 297 296 296 296 295 296 296 295 296 296 297 301 302 301 303 306 301 302 306 297 288 290 296 294 292 291 288 288 292 291 290 292 292 290 290 292 291 290 291 291 289 288 288 290 292 293 294 292 290 290 290 290 291 291 291 291 291 289 288 287 285 284 284 284 285 285 283 280 280 278 277 278 279 279 277 275 273
297 297 297 298 298 298 298 298 298 298 297 297 296 296 296 296 295 295 296 295 297 302 303 300 303 304 301 303 307 296 288 293 297 293 291 292 290 289 290 291 292 294 292 289 291 293 291 289 289 290 290 290 292 295 295 295 295 294 292 292 292 291 291 291 291 290 290 289 289 288 287 286 286 286 285 284 283 281 281 280 278 278 279 279 278 276 274
297 297 298 298 298 299 298 297 297 297 297 297 296 295 296 296 295 295 296 295 295 298 300 302 305 302 299 301 301 293 291 297 298 293 292 293 292 291 290 291 295 296 292 292 294 293 289 288 289 291 292 293 295 295 292 291 292 292 291 291 291 290 290 290 289 289 289 289 289 289 287 286 286 285 284 284 283 282 282 281 280 279 279 279 278 277 275
296 298 298 298 300 303 302 299 296 297 297 296 296 297 296 296 297 299 299 298 298 297 297 300 303 299 295 297 297 292 292 297 298 296 294 294 293 292 291 291 294 294 293 294 293 289 288 289 289 290 292 292 292 291 290 289 290 290 289 289 290 290 290 290 288 288 289 290 289 289 289 288 287 285 284 283 283 282 281 280 279 277 277 277 276 276 274
298 298 297 298 301 303 301 298 296 296 296 295 296 298 299 298 300 302 300 298 300 299 297 300 301 296 294 299 300 293 290 293 297 297 296 295 294 294 292 292 293 291 292 294 291 287 289 292 290 290 292 292 292 293 293 290 289 290 289 288 288 288 288 289 288 287 288 289 289 289 287 287 287 287 286 285 284 282 280 278 277 277 276 276 275 275 274
297 297 297 300 301 299 297 296 295 295 297 297 297 299 301 301 301 300 299 301 302 300 297 297 296 291 290 295 297 293 289 290 293 295 295 295 294 292 292 293 292 290 292 295 291 288 290 292 290 291 296 299 299 298 295 292 292 293 291 287 285 285 286 286 286 285 285 285 286 285 284 283 284 285 286 286 285 284 282 279 277 277 276 276 275 275 274
297 297 298 300 299 296 295 295 294 294 296 299 300 300 301 300 297 295 298 303 304 301 294 293 295 295 292 291 294 295 291 288 289 291 292 293 292 291 293 293 290 289 292 293 290 288 290 291 291 293 298 301 300 297 294 293 294 294 291 287 285 285 285 284 284 284 284 284 285 284 283 282 282 281 282 282 282 282 281 278 276 276 276 276 275 275 275
297 297 297 297 296 295 295 296 296 295 297 300 301 300 300 299 298 298 299 301 301 299 295 293 295 297 294 289 290 292 290 287 288 290 291 292 292 292 291 289 288 291 293 290 287 288 289 290 293 298 302 299 296 294 293 294 294 294 292 287 285 285 284 283 284 285 284 283 283 283 282 282 281 281 281 281 280 279 278 277 277 277 277 276 276 275 275
297 297 296 296 296 296 297 298 298 298 300 302 302 301 301 302 301 300 300 299 298 296 295 293 291 291 290 288 288 289 288 287 288 290 290 291 290 289 288 288 289 292 291 287 286 290 292 294 299 304 303 298 294 292 292 293 292 292 290 286 285 286 285 283 284 285 284 282 282 282 282 282 281 281 281 281 280 279 278 278 278 277 276 276 276 275 274
297 296 296 298 298 298 299 299 298 298 301 303 302 301 303 306 305 303 304 304 302 299 298 295 293 294 294 291 289 290 290 289 289 289 289 288 287 287 288 291 292 290 288 287 288 290 292 293 297 298 295 293 292 292 293 293 293 292 291 287 285 285 284 283 283 283 283 282 282 282 281 281 281 280 280 280 279 278 278 278 277 277 276 275 275 274 274
298 300 301 301 300 300 300 300 299 300 301 302 304 307 308 308 310 311 309 303 299 297 297 296 295 296 295 290 288 291 291 289 289 290 289 288 288 289 291 292 291 289 288 290 290 291 294 298 299 296 294 294 295 295 295 294 292 290 289 289 287 285 284 284 284 283 282 282 281 280 280 280 279 279 279 278 278 278 278 277 277 276 275 274 273 273 273
298 301 302 302 301 300 299 300 302 304 302 304 312 319 317 312 312 310 301 295 296 299 297 295 296 297 295 290 288 289 289 288 289 290 287 287 291 293 290 289 289 290 291 292 293 296 302 305 303 299 298 297 296 295 294 293 290 288 288 289 289 286 284 282 282 282 282 281 280 280 280 279 278 278 278 277 277 277 277 277 276 275 274 273 273 273 273
298 298 300 303 303 300 299 302 307 308 306 306 312 316 310 303 301 298 291 288 294 297 294 291 292 293 292 290 289 289 288 287 289 289 287 287 291 291 288 288 290 292 293 296 301 304 306 304 301 299 298 297 295 294 293 292 291 290 289 289 288 287 284 282 281 281 282 281 280 279 279 279 279 278 277 277 276 276 276 277 276 275 274 274 274 273 273
299 298 299 303 304 304 306 307 306 306 305 303 301 299 293 292 296 298 290 284 286 292 293 292 292 292 291 291 291 290 288 287 289 290 288 288 290 292 291 292 293 292 291 296 304 309 308 303 299 299 298 297 295 295 293 291 291 291 290 289 288 287 285 284 282 282 281 281 280 279 279 279 279 278 277 276 276 276 276 276 276 275 274 274 273 273 272
297 297 299 301 302 306 308 303 300 305 308 300 294 293 293 295 301 301 289 283 286 290 289 289 292 293 292 291 290 289 289 289 289 289 287 287 291 294 295 296 298 298 297 298 301 303 303 300 298 298 297 296 295 294 292 291 291 290 288 288 287 285 283 283 282 281 281 280 280 279 279 279 279 278 276 275 275 276 276 276 275 274 274 274 273 273 272
295 297 300 301 302 306 305 299 299 308 314 306 301 300 299 300 302 297 287 285 289 289 286 287 292 293 290 289 290 291 291 289 288 288 290 291 292 291 292 295 301 306 308 305 301 300 299 298 297 297 297 295 294 293 292 291 290 288 286 285 285 283 282 282 281 280 280 280 279 279 279 279 278 278 277 276 276 275 275 275 275 274 274 274 273 273 272
295 298 301 302 305 310 309 302 300 307 310 306 304 303 300 300 301 294 285 285 289 291 291 292 294 291 290 293 294 293 290 288 287 288 292 294 291 290 294 301 305 306 305 303 299 298 298 297 296 296 296 294 293 293 291 289 287 286 285 284 284 283 282 281 280 279 279 279 278 278 278 278 278 278 277 276 276 274 274 274 274 274 274 274 273 273 273
299 300 302 301 301 303 303 301 302 305 304 300 298 296 295 296 294 288 283 285 291 294 295 294 292 292 294 296 294 290 288 289 289 290 293 294 292 292 298 304 304 301 300 299 296 295 296 296 295 295 295 293 292 291 288 286 285 285 285 284 283 282 281 280 279 278 278 277 277 277 277 277 277 277 276 274 274 273 273 274 274 274 274 274 274 273 273
Wind_Speed
19 20 20 20 20 18 16 13 9 8 8 6 6 5 4 4 2 7 18 9 13 16 7 3 6 4 0 1 1 2 2 2 4 4 4 3 2 4 3 2 2 2 1 1 3 3 1 1 1 2 2 1 3 2 2 2 2 2 1 2 1 0 1 1 3 3 3 4 4 2 3 5 4 1 1 3 2 3 5 4 2 1 3 1 1 3 6
19 19 20 19 19 18 16 12 7 6 6 6 7 6 3 3 2 6 17 10 8 8 4 3 4 2 2 4 3 3 3 3 3 3 3 3 2 3 2 2 2 1 2 3 2 1 2 1 1 2 2 1 3 2 1 2 2 1 1 1 1 1 0 1 2 4 6 6 5 4 3 2 1 1 0 2 3 4 3 2 2 1 3 3 3 4 5
19 19 19 19 19 17 15 12 7 6 6 5 6 5 3 4 2 4 15 18 11 5 4 6 6 3 4 5 3 3 3 2 1 2 2 2 2 3 1 1 1 1 3 4 3 3 2 1 1 1 1 1 1 2 2 1 2 1 3 3 0 1 1 2 3 1 4 4 4 4 3 2 1 2 1 1 3 4 3 2 3 1 4 2 3 6 6
19 19 19 19 18 17 15 12 7 6 6 6 7 6 3 3 3 2 8 13 10 4 2 5 6 5 5 4 3 4 3 2 0 3 3 2 3 4 1 1 2 3 4 3 3 4 3 2 2 2 1 2 2 3 4 2 2 3 3 2 2 2 0 1 5 5 5 6 7 5 2 2 2 2 3 3 3 4 5 4 3 4 2 2 5 7 8
18 19 19 18 18 17 14 12 8 5 5 7 8 7 4 2 2 1 1 3 5 5 5 5 4 3 4 3 2 2 3 2 2 3 2 1 3 3 3 4 3 2 2 3 1 2 3 4 3 1 2 3 4 2 3 1 2 4 3 2 3 3 2 1 3 5 8 8 9 6 3 3 5 4 4 5 5 5 6 4 6 4 2 4 8 6 7
18 19 19 18 18 16 14 12 8 5 3 4 5 5 4 3 2 1 2 2 2 2 2 3 6 5 4 4 2 3 4 3 2 2 2 2 3 2 2 6 5 1 1 2 1 2 2 3 1 0 2 3 4 3 1 1 2 4 1 1 4 4 2 3 2 5 8 8 9 7 5 4 4 5 5 6 6 7 7 8 7 5 3 8 9 6 9
19 19 19 18 17 16 14 11 8 7 5 4 6 5 3 3 3 1 2 4 3 3 1 4 7 7 5 4 3 3 4 3 0 2 3 3 4 3 3 4 6 4 0 3 3 0 0 0 2 2 1 1 1 2 2 2 0 3 3 2 2 3 2 3 2 4 10 10 7 6 6 4 4 6 7 7 7 9 9 8 7 6 7 11 11 12 14
19 19 19 18 17 15 14 11 8 7 6 6 8 6 2 3 3 2 4 4 2 1 3 4 6 5 5 4 3 2 3 2 0 2 3 1 4 4 4 2 4 4 4 5 4 3 4 4 4 3 2 1 1 1 1 2 3 4 3 2 2 1 2 2 2 2 8 8 4 3 5 5 6 8 7 7 7 8 8 7 6 6 9 11 10 11 13
20 20 19 19 17 15 13 11 9 6 4 7 8 5 4 5 5 6 7 4 3 3 3 4 5 4 3 2 1 2 2 2 2 2 2 2 0 1 3 1 2 4 6 5 3 4 4 5 6 6 5 3 3 2 2 3 1 4 1 1 3 2 1 2 4 3 6 5 2 4 4 3 6 10 10 8 7 6 6 6 5 6 7 8 7 7 9
20 20 20 19 17 15 13 11 9 7 5 9 8 3 5 8 6 5 7 4 3 3 3 4 4 2 1 0 2 2 1 1 3 3 1 1 2 2 3 1 2 3 3 1 5 6 5 6 6 4 4 4 3 3 3 5 4 1 1 0 1 2 1 1 2 1 6 5 4 4 3 4 6 8 8 9 8 7 6 5 6 8 6 4 5 7 9
19 20 21 20 18 16 14 12 11 8 5 12 13 7 5 7 5 3 6 5 3 3 3 4 3 2 0 1 3 4 3 4 3 3 2 1 2 1 1 4 4 1 2 3 4 5 5 5 5 3 1 1 2 3 3 3 3 4 4 1 1 3 3 1 1 1 5 7 5 5 4 3 5 4 3 5 7 8 9 8 8 8 6 4 6 9 10
19 20 21 20 20 18 16 14 13 11 10 17 20 13 6 6 6 4 6 6 2 4 4 1 1 2 3 3 4 4 4 5 3 3 5 1 2 3 3 4 4 1 2 3 2 2 3 5 4 4 3 3 3 4 4 5 5 4 4 4 2 2 2 1 1 2 3 4 5 5 3 6 6 3 1 1 3 3 5 8 9 8 8 9 11 13 12
18 19 20 20 20 19 18 16 15 14 12 12 16 15 9 8 8 5 5 7 2 2 4 2 1 3 6 6 6 4 4 5 4 4 5 2 1 2 3 1 3 1 2 3 4 3 2 3 3 3 4 3 4 5 7 8 8 5 4 4 4 3 2 1 1 2 2 2 3 1 6 7 4 3 2 1 3 4 1 7 10 9 9 10 11 13 12
19 18 18 19 19 19 19 18 16 14 10 6 10 14 11 8 8 5 4 7 2 1 4 4 2 4 7 6 6 5 4 4 4 4 3 2 1 1 2 1 2 2 3 3 3 3 1 2 3 3 4 4 4 4 5 6 7 7 7 5 4 5 3 0 1 1 1 1 3 3 6 7 5 3 2 2 2 3 3 3 7 7 7 9 9 10 10
19 19 18 17 18 18 18 18 16 14 11 6 8 13 12 8 8 7 6 7 5 1 1 3 5 6 7 5 5 5 3 2 2 2 2 1 1 2 3 1 1 4 3 2 2 2 2 1 2 3 3 3 2 3 3 2 3 4 5 4 3 4 4 2 1 1 1 1 4 4 4 5 5 4 2 2 3 5 6 1 6 6 7 8 8 8 8
18 18 18 18 17 17 17 17 16 14 11 7 7 12 14 10 9 12 11 7 5 3 1 2 4 5 5 3 3 5 4 2 3 2 3 3 1 3 3 1 2 3 3 3 2 2 3 1 1 1 2 3 2 3 3 2 3 2 2 1 2 2 1 3 2 2 0 1 3 3 2 6 6 4 3 3 4 6 7 3 6 6 5 6 6 7 7
18 18 18 19 18 17 16 15 14 14 12 8 9 14 15 12 11 13 12 7 4 3 1 1 1 3 4 2 2 2 3 2 3 3 1 2 1 1 2 2 2 1 2 3 2 2 3 0 1 1 3 3 2 2 3 1 3 3 2 2 3 4 2 2 3 5 3 3 3 4 4 6 5 6 5 4 4 7 6 5 8 6 6 6 6 7 8
18 18 19 21 21 20 18 14 12 12 12 10 12 16 16 12 8 8 8 6 5 2 1 2 2 3 3 3 3 2 2 2 2 2 1 1 1 2 1 0 1 1 1 2 2 2 1 1 1 2 3 4 0 1 3 1 2 4 2 1 2 2 2 2 4 5 4 4 4 4 5 6 4 6 7 6 5 5 1 6 6 5 6 7 7 7 8
17 19 21 22 22 22 21 18 14 11 9 8 8 11 13 10 7 9 9 6 5 3 2 1 2 2 1 1 1 1 1 2 2 3 3 1 2 3 2 1 1 0 1 2 2 1 1 2 2 3 2 4 1 1 2 2 3 3 2 1 2 1 1 1 3 3 4 4 3 3 6 5 4 6 5 5 3 1 5 6 3 5 6 7 7 7 7
18 20 21 23 24 24 23 21 18 14 11 9 7 12 16 11 3 3 4 6 6 4 1 1 2 3 2 2 3 2 1 2 2 3 4 2 2 3 3 2 1 1 1 2 0 0 1 2 3 1 2 3 2 1 2 4 4 3 2 3 3 3 2 2 3 3 2 2 1 3 6 4 8 10 4 3 4 5 5 3 2 4 6 6 6 7 6
18 20 22 23 24 24 23 23 20 16 14 10 8 15 22 20 15 9 8 15 13 4 1 2 3 4 4 3 3 2 2 3 2 3 4 3 2 3 2 3 2 2 1 2 1 1 2 2 2 1 1 2 1 1 2 3 5 4 3 2 2 3 4 3 4 3 2 2 4 4 4 5 10 9 4 6 9 7 4 2 4 4 5 5 5 6 6
18 20 22 23 24 24 24 24 22 20 17 10 7 14 19 20 20 14 11 18 20 10 6 8 6 6 7 4 2 1 1 2 2 3 3 2 0 2 3 3 2 2 2 3 2 1 1 1 1 1 2 2 2 2 3 2 5 5 1 2 3 6 6 4 4 4 4 5 8 6 3 4 8 9 7 7 9 8 5 6 6 5 4 5 4 5 6
18 20 22 23 25 25 24 23 23 22 21 16 15 21 22 18 16 12 12 20 22 14 10 11 8 6 6 4 3 2 1 1 2 3 3 3 1 0 1 2 2 1 0 2 3 3 2 2 2 1 1 3 2 2 3 3 4 4 3 3 5 6 4 3 2 3 5 7 8 8 7 7 8 10 10 9 9 8 6 7 7 6 5 5 4 5 6
15 18 21 23 25 25 25 24 23 21 20 18 19 23 24 20 17 15 15 15 11 6 5 4 3 2 2 1 2 3 2 1 1 3 3 3 2 0 1 1 1 1 0 1 2 3 2 2 1 1 2 3 3 2 3 4 4 3 2 4 5 3 2 3 3 3 4 6 6 5 8 10 8 8 8 9 10 9 7 7 7 6 6 5 5 6 5
13 15 18 20 21 22 23 23 23 21 19 17 16 17 18 15 11 10 10 8 5 4 4 2 2 0 0 1 0 1 2 4 3 1 3 3 2 2 1 2 2 2 3 2 1 4 2 1 1 2 3 3 2 2 3 4 3 2 2 4 4 1 1 2 5 5 6 9 10 9 9 10 9 8 7 8 9 9 8 7 6 5 5 6 7 6 5
10 11 13 15 17 18 18 18 20 21 20 18 16 16 16 14 10 8 10 10 7 6 4 0 2 2 3 2 1 1 1 3 3 2 2 3 2 3 4 3 2 2 2 1 2 4 3 1 1 3 3 3 1 2 3 4 3 1 4 6 2 2 2 3 3 5 7 9 11 10 9 10 10 11 9 8 7 7 7 6 6 5 5 6 6 7 7
8 8 10 12 14 15 15 13 13 15 17 18 19 18 17 15 11 7 6 5 3 3 2 1 2 3 4 5 3 2 1 1 1 2 3 2 3 5 5 3 2 1 1 1 1 2 2 1 2 3 4 2 1 2 3 3 2 2 6 6 1 3 4 4 2 4 7 8 9 7 6 7 9 9 8 7 6 6 6 6 6 6 7 6 6 7 8
7 7 8 11 12 13 13 11 9 7 8 11 16 19 21 20 16 12 9 5 3 4 4 2 1 1 2 3 4 4 3 2 2 0 1 1 3 5 5 3 1 1 2 2 1 1 2 3 3 3 2 1 1 2 2 1 0 3 6 5 4 5 7 5 4 6 10 11 10 7 5 7 10 8 7 6 5 6 6 7 7 7 7 6 6 6 7
8 9 10 12 14 14 15 14 11 6 4 4 7 12 17 17 16 14 12 10 8 9 6 3 2 2 1 2 4 5 5 4 3 3 3 1 2 5 6 4 3 2 2 2 2 2 3 3 3 2 2 1 1 2 2 1 1 5 7 6 7 8 9 9 9 11 12 13 12 7 6 9 10 7 6 6 6 7 7 7 7 6 7 8 7 7 7
12 12 12 13 13 14 15 16 15 11 5 2 3 4 8 10 11 11 10 8 7 7 5 3 2 1 1 2 4 6 6 5 4 5 5 5 6 6 6 5 5 3 1 1 2 2 2 3 1 1 2 1 2 1 1 1 3 6 9 9 8 9 9 9 11 11 11 13 11 6 6 9 9 5 5 6 8 8 6 6 7 7 8 10 9 8 9
11 11 11 11 12 13 13 15 15 14 9 4 2 2 2 2 5 7 7 5 5 5 5 4 2 0 1 1 3 6 7 6 5 5 6 7 7 7 7 6 5 3 2 1 1 2 2 2 1 1 1 1 2 2 2 2 3 6 10 11 9 8 8 9 10 10 12 13 10 6 7 8 6 3 5 6 10 11 7 5 8 9 9 10 11 10 11
8 9 10 11 11 12 12 12 12 11 10 10 9 6 4 2 2 4 4 3 3 4 4 4 2 1 2 2 1 3 5 5 3 2 4 5 4 5 6 6 4 4 4 3 1 2 3 2 2 2 1 2 2 1 2 3 4 9 12 11 10 7 7 8 9 9 9 9 6 6 9 9 7 7 7 6 8 11 9 6 8 9 9 9 9 9 10
6 7 8 9 10 11 11 10 9 8 9 12 13 10 8 6 5 4 3 2 3 3 4 4 2 1 2 0 0 3 4 3 1 1 2 4 4 3 3 3 2 2 4 4 2 2 2 1 2 2 2 0 2 1 2 5 10 14 14 12 11 9 8 8 9 9 9 7 6 6 10 10 6 5 6 4 6 9 10 8 7 7 6 6 6 7 8
4 6 7 8 10 11 10 8 7 6 6 7 8 8 8 8 7 6 4 2 3 3 3 3 2 1 2 2 2 2 4 1 1 1 1 2 3 3 1 1 0 1 3 3 2 1 1 0 2 2 2 1 1 1 4 9 14 15 13 12 12 10 8 8 9 9 9 7 6 8 11 8 3 1 3 3 5 7 8 8 7 6 5 5 6 7 8
5 7 9 10 12 11 7 5 6 5 4 4 4 4 5 4 5 7 6 3 2 2 2 2 3 1 1 4 4 3 3 1 2 2 2 1 1 2 1 0 0 2 2 2 1 1 1 1 2 2 1 1 1 3 7 11 13 12 9 10 11 9 6 8 9 8 8 6 6 7 8 5 4 5 5 5 5 6 6 7 7 7 6 6 6 7 7
7 9 10 11 10 7 3 4 5 5 4 3 2 3 4 4 3 3 4 5 4 2 1 1 2 2 2 1 4 2 1 1 2 1 0 0 1 0 2 2 0 3 1 1 0 2 2 1 1 1 2 2 4 7 9 9 11 11 10 10 11 8 8 10 11 10 8 6 5 6 6 5 7 8 6 6 6 5 5 6 6 6 7 8 7 6 6
8 10 10 9 6 3 2 3 4 4 4 3 4 4 3 2 2 1 2 4 5 4 3 3 1 2 3 2 2 0 1 2 2 1 1 1 1 1 1 2 1 3 1 1 3 3 1 1 1 2 4 5 7 9 9 8 10 11 11 11 11 9 9 11 9 8 9 8 7 7 6 6 7 7 6 7 6 5 6 7 8 8 8 8 7 6 8
9 10 8 5 3 2 1 2 3 4 5 5 4 3 2 2 2 2 2 2 3 4 4 3 2 2 1 1 1 0 0 1 1 2 1 1 0 1 1 1 1 1 1 3 3 2 1 1 1 3 6 7 7 10 13 12 11 11 10 10 11 10 10 9 7 6 7 8 8 8 7 6 8 8 7 8 8 7 8 9 9 10 10 9 9 9 9
9 8 5 3 2 1 1 3 4 4 4 4 2 1 2 2 3 2 2 2 2 2 2 1 2 2 3 1 3 1 1 1 2 2 1 1 1 1 1 0 1 1 1 3 2 1 1 2 1 2 5 6 6 9 12 10 8 9 9 9 11 11 10 8 7 8 9 9 10 9 7 7 9 8 7 7 7 7 7 8 9 11 12 11 11 11 10
6 4 2 1 1 1 3 4 4 3 2 2 2 1 1 2 1 0 1 2 1 1 0 1 1 1 2 2 2 2 2 2 1 2 2 2 1 0 1 1 1 0 1 3 2 1 1 1 2 2 4 5 6 8 8 5 6 8 8 8 11 13 12 11 11 12 11 11 12 12 11 10 10 8 6 6 6 6 6 8 10 12 13 12 12 12 12
3 2 2 2 2 3 4 3 3 2 1 2 2 2 1 1 1 0 1 1 2 3 1 2 1 2 1 2 3 2 1 1 1 2 1 1 1 1 1 1 1 1 1 4 2 2 2 0 2 3 5 7 7 7 6 6 7 8 8 9 12 14 14 12 13 15 12 9 9 12 13 13 12 11 9 9 8 7 7 8 9 11 13 13 13 13 13
4 4 4 4 3 3 2 1 1 2 2 1 1 1 0 1 1 1 0 1 1 2 1 1 2 2 2 2 2 2 0 1 2 2 2 1 1 1 1 1 1 0 3 4 0 3 1 1 3 6 7 8 8 7 6 7 8 8 9 11 13 14 13 11 11 14 14 11 10 12 14 14 14 14 14 13 11 10 10 10 11 12 13 14 14 14 13
5 4 3 2 2 2 2 2 1 1 2 2 2 2 2 2 2 1 2 2 0 0 1 1 1 1 1 2 2 1 1 1 1 1 1 1 1 1 2 1 0 2 3 1 2 2 2 3 5 7 7 6 6 7 7 8 8 8 9 12 15 17 16 12 11 13 15 14 14 15 15 15 15 16 15 14 13 12 12 13 13 13 13 13 13 14 14
3 2 1 1 1 1 1 1 1 1 1 1 0 1 1 3 2 1 2 2 2 2 2 1 2 2 2 1 1 1 1 1 1 1 0 1 1 2 1 2 3 2 1 1 1 2 4 5 6 8 7 7 7 8 8 8 8 7 8 12 15 17 15 13 11 12 13 14 14 15 15 15 15 15 14 14 15 14 14 14 14 13 13 12 13 14 14
2 2 2 3 3 1 1 1 2 1 0 1 2 4 3 3 3 4 4 2 1 1 1 2 5 4 2 1 1 1 1 1 1 0 0 1 1 0 2 3 2 1 1 1 1 2 4 5 6 7 7 7 8 8 7 7 7 7 8 10 12 12 11 10 9 8 9 12 14 14 13 13 14 13 14 16 17 17 17 16 14 13 13 13 14 15 14
0 0 3 2 1 2 1 0 1 0 1 2 3 4 5 5 5 5 3 1 2 3 3 3 4 4 2 1 0 1 1 1 1 1 1 2 0 2 2 1 1 2 1 2 3 4 5 6 6 5 6 7 7 7 7 7 6 7 7 9 10 11 10 10 9 9 11 13 14 13 12 13 13 13 14 16 16 17 18 18 16 14 13 14 15 15 14
0 1 3 2 1 2 0 2 3 3 3 4 4 5 5 4 3 3 2 2 2 3 3 2 3 3 2 1 1 0 0 1 1 1 1 2 1 2 1 2 0 1 1 3 5 6 6 6 5 5 6 7 6 7 8 8 7 7 8 8 9 10 11 10 9 10 13 14 13 12 13 14 14 14 14 14 15 16 18 18 17 15 15 15 15 14 12
1 1 1 1 1 2 2 3 3 3 2 2 2 2 2 1 2 3 3 2 2 3 4 3 2 1 1 1 2 1 0 1 0 1 0 1 0 1 2 1 2 3 3 4 6 6 5 5 5 6 7 7 7 8 8 8 9 9 9 9 10 11 11 10 10 12 14 14 12 12 13 14 14 14 13 13 14 16 16 16 16 15 15 16 15 14 13
1 1 1 1 1 3 4 2 2 4 4 2 2 1 1 1 3 5 3 2 2 2 3 3 2 1 1 1 2 1 1 1 1 1 1 1 0 1 1 1 3 4 4 5 5 5 5 5 6 7 8 7 7 7 8 8 8 9 9 10 12 13 12 12 13 15 16 15 13 14 15 15 14 13 12 12 13 15 15 14 15 15 16 15 15 15 15
1 0 1 2 2 3 3 1 1 4 5 4 3 2 2 2 4 4 4 4 3 2 2 1 1 1 0 1 2 1 2 2 1 1 0 2 2 2 1 2 4 5 5 5 5 5 6 6 6 7 9 9 8 8 8 8 8 10 12 14 15 15 15 15 16 16 17 16 15 15 15 15 14 13 13 13 13 13 12 12 14 15 15 15 14 15 15
1 1 2 3 3 3 2 2 2 5 5 4 3 3 3 2 3 4 6 6 4 4 2 1 1 2 2 1 0 1 2 1 2 2 2 3 3 3 3 5 6 6 5 5 5 5 5 6 5 6 9 10 9 9 9 10 12 14 17 18 17 16 16 16 16 15 16 17 16 15 15 15 15 14 13 12 11 9 9 12 15 15 15 15 15 15 16
1 2 3 3 0 2 3 1 2 4 4 3 2 2 2 1 2 4 6 6 4 3 2 2 2 3 1 2 2 1 0 0 0 1 3 3 3 4 5 6 6 5 5 6 6 5 5 6 6 6 7 8 10 13 14 15 16 17 18 18 17 16 17 17 16 16 16 17 16 15 15 15 13 11 9 9 8 7 8 11 13 13 13 14 14 14 14
Wind_Direction
7 7 11 12 12 14 14 17 31 50 51 54 68 75 57 62 139 349 4 44 107 81 57 345 36 65 105 43 47 29 65 55 9 13 24 21 33 40 40 55 62 72 103 68 65 68 67 34 67 136 137 229 226 226 343 355 95 89 3 294 302 67 66 357 295 292 291 297 325 21 94 74 67 11 54 109 137 143 151 179 188 230 287 307 40 282 270
6 6 8 11 13 14 17 22 25 30 36 52 72 90 94 87 144 9 16 44 112 89 90 127 76 76 88 64 31 17 57 65 34 27 10 3 53 61 28 21 61 76 84 81 81 82 88 61 48 137 137 223 218 188 53 51 79 60 231 236 306 306 65 22 358 344 342 340 345 338 318 8 104 221 340 111 120 96 97 123 109 231 248 173 155 253 257
6 5 6 11 15 16 18 21 24 32 44 61 75 103 131 73 77 353 19 37 65 96 138 132 121 126 101 79 56 39 37 37 91 98 24 359 85 98 19 351 56 38 58 68 46 40 75 121 3 52 72 279 249 197 204 118 103 212 210 192 209 200 176 100 93 10 317 309 299 288 270 280 176 158 175 164 129 116 129 125 107 210 253 197 196 253 267
7 6 7 9 14 18 19 22 30 51 66 85 87 88 118 78 53 339 7 28 48 75 90 92 105 130 116 77 53 68 53 330 261 99 62 4 51 73 25 4 44 27 44 63 29 20 38 73 82 61 316 277 275 211 199 186 164 182 190 179 116 90 243 131 139 181 222 241 252 244 202 241 260 213 216 217 174 128 118 118 165 196 229 274 238 244 275
9 8 8 9 14 18 20 23 31 59 82 100 94 65 55 95 84 88 72 29 38 40 26 47 80 123 128 104 55 73 69 346 346 45 59 15 51 65 35 31 43 19 41 67 34 359 27 42 68 106 236 267 291 246 183 192 174 159 167 186 118 76 324 269 162 213 230 238 253 254 212 223 233 224 223 218 192 137 127 178 221 184 112 281 247 227 271
13 11 10 11 14 17 21 27 34 56 83 119 112 57 27 85 121 150 128 101 74 50 26 68 77 63 79 97 89 76 59 39 16 351 342 1 33 72 38 18 20 351 178 124 68 5 27 31 24 215 241 288 332 342 302 285 165 135 79 350 112 105 270 234 196 266 267 264 263 249 224 229 228 209 211 215 199 176 185 224 226 164 172 257 261 262 272
16 15 14 14 14 17 23 29 38 60 74 105 108 83 39 90 102 37 64 94 139 155 105 86 76 59 62 69 61 85 78 65 44 309 357 4 358 62 80 352 351 4 92 128 108 357 125 203 268 230 212 277 347 7 308 290 6 89 47 343 107 121 254 240 195 286 293 292 278 234 211 240 263 237 221 215 211 204 211 234 230 202 228 255 268 278 275
21 19 17 17 17 18 23 30 41 61 78 87 84 74 61 129 135 121 76 72 86 74 47 75 76 52 54 65 50 75 85 87 93 1 55 52 333 31 86 335 344 31 49 87 125 208 186 183 224 192 150 255 220 166 225 262 328 16 51 337 341 75 285 277 106 336 299 294 289 234 220 238 264 262 247 227 225 227 226 233 234 230 249 260 269 279 278
25 25 24 21 21 22 25 31 37 44 85 93 75 57 73 102 125 132 110 69 16 19 34 75 86 44 24 58 67 50 59 134 133 33 51 136 133 88 134 285 343 51 50 70 162 221 187 181 212 192 171 201 202 193 195 177 304 341 12 351 357 40 303 332 51 15 289 273 281 275 265 281 287 278 263 238 225 229 226 220 212 203 229 265 284 284 280
30 31 32 28 27 30 29 32 39 45 90 101 89 76 95 98 101 107 103 78 20 26 26 44 74 72 337 64 88 76 53 176 111 84 30 88 99 165 179 147 65 65 46 65 210 217 202 206 229 217 193 194 184 195 193 156 151 207 194 226 358 105 103 348 52 359 276 279 308 315 353 3 303 271 245 222 214 223 239 241 227 209 206 246 265 265 274
34 36 37 35 36 37 36 43 47 42 90 118 116 117 117 116 113 75 80 79 9 3 39 40 63 110 186 41 65 77 65 34 54 120 156 343 356 334 130 98 92 138 224 238 224 218 224 237 251 266 273 207 202 211 218 200 189 176 153 149 248 123 117 181 178 195 268 285 328 358 5 314 267 250 210 202 203 215 232 243 240 223 208 227 254 269 282
36 38 39 40 41 44 47 53 57 60 96 124 123 114 101 109 108 76 86 100 357 358 63 62 240 126 104 76 79 89 86 60 42 126 140 174 318 2 46 83 105 164 260 300 322 312 280 268 261 277 301 294 276 275 257 249 250 220 164 147 162 139 128 207 197 176 254 302 13 14 293 242 239 272 300 184 149 171 234 264 263 246 247 261 269 273 275
37 38 39 40 42 47 52 57 67 78 93 119 120 108 101 106 98 81 98 106 51 356 103 126 285 96 100 100 103 110 109 89 62 82 108 128 310 2 12 93 149 184 323 343 11 31 329 294 283 274 288 316 315 292 261 244 243 235 199 162 149 152 162 209 219 207 263 356 48 297 265 260 262 287 277 165 81 78 8 291 272 245 244 255 258 265 268
38 37 40 42 42 47 52 56 64 74 79 105 114 105 105 109 105 107 114 102 92 261 120 107 79 95 106 114 118 112 95 73 53 53 81 104 113 278 282 231 202 282 324 353 24 43 41 351 360 339 325 355 353 307 277 252 230 213 211 206 164 148 157 185 279 224 207 233 228 249 303 311 303 278 248 174 151 147 144 271 267 233 224 238 246 261 265
41 40 41 44 45 47 52 55 59 64 69 84 107 106 103 102 111 124 121 109 117 166 124 140 164 148 133 135 132 119 103 68 60 42 20 71 96 268 266 239 267 303 338 52 67 43 52 50 18 352 331 344 334 296 304 305 266 214 199 203 167 156 182 182 199 249 121 251 287 320 341 302 266 245 231 138 141 140 124 100 283 249 217 219 226 243 251
44 45 45 48 49 49 52 54 58 63 67 75 100 104 95 88 103 112 106 101 115 132 178 198 171 142 126 136 149 135 139 161 134 80 344 337 326 289 275 259 288 315 18 62 86 66 61 85 155 219 255 235 229 270 283 298 310 333 59 39 340 301 214 140 152 276 302 147 267 267 247 260 248 212 187 149 137 118 95 31 291 255 208 197 199 219 237
46 48 50 53 54 53 53 53 58 64 65 74 101 100 90 87 102 108 100 86 89 115 242 277 119 118 109 115 181 167 152 153 128 112 288 260 229 285 310 321 333 12 58 56 40 60 69 53 221 233 257 239 192 254 276 275 292 303 359 5 298 287 306 117 177 244 224 174 234 243 238 258 237 177 168 168 134 100 69 326 284 238 203 200 195 215 235
48 51 53 55 55 56 56 54 58 69 76 84 96 95 86 81 92 105 106 96 91 118 278 7 87 139 139 142 183 191 145 134 114 102 100 246 178 177 217 243 32 10 51 80 63 70 99 250 233 174 253 275 183 210 260 264 257 254 233 225 262 256 240 179 201 233 220 202 240 266 260 253 213 159 159 156 118 81 33 275 259 202 200 213 203 216 233
52 54 55 56 56 55 55 54 53 64 79 85 94 87 73 71 92 103 99 89 84 132 200 359 61 126 142 128 147 98 77 113 113 110 99 349 256 177 156 115 98 344 17 83 91 111 143 261 255 148 217 287 303 185 245 243 228 228 225 288 299 279 259 220 204 224 226 211 223 275 282 258 153 128 142 146 121 301 251 238 208 173 196 216 212 215 224
56 57 57 57 58 55 54 54 51 54 66 75 93 83 64 56 86 115 113 117 100 91 104 45 66 99 90 104 135 138 115 97 99 127 140 192 222 122 73 344 274 137 57 69 50 243 171 247 274 169 193 256 254 201 258 265 256 230 193 218 222 191 204 253 224 202 219 252 256 294 288 249 138 122 120 169 191 226 228 211 211 199 194 201 211 217 214
58 60 60 60 60 58 57 56 53 55 63 69 98 89 69 60 65 75 117 129 117 101 190 148 115 104 94 101 135 145 150 151 162 158 153 196 215 123 133 235 207 162 155 140 162 254 203 211 252 254 220 243 256 222 239 281 297 280 187 187 232 194 181 225 243 208 162 223 232 230 240 197 162 156 178 208 215 223 213 211 249 237 199 190 210 224 215
62 63 63 62 62 60 59 60 58 59 62 65 95 98 82 72 73 77 101 102 90 85 125 128 117 104 98 93 89 87 188 187 184 163 135 134 205 142 154 176 168 190 197 135 141 253 269 223 221 247 265 257 254 249 225 246 295 291 203 148 237 219 193 194 231 224 199 217 234 239 227 179 184 204 226 228 233 239 222 221 246 245 209 197 205 221 218
64 66 65 64 64 61 59 59 58 59 62 64 74 88 92 90 85 90 104 94 84 85 105 110 105 95 84 73 79 98 149 191 227 218 162 120 105 175 158 153 166 213 98 112 156 178 179 212 204 178 254 238 217 272 287 258 254 255 229 231 248 233 190 156 211 259 271 263 255 256 261 247 226 229 239 245 250 249 224 220 238 237 214 203 203 215 217
65 68 68 66 64 62 60 59 58 59 62 62 67 81 92 95 91 94 99 96 91 90 83 82 92 85 50 26 72 72 53 56 182 221 197 152 131 132 252 223 164 112 216 220 183 131 133 217 190 134 250 237 194 208 274 266 245 228 243 281 283 270 168 172 226 269 287 278 266 250 252 258 253 244 244 250 252 247 227 220 232 228 213 206 208 209 204
66 70 70 66 61 60 59 59 59 59 61 64 69 79 86 86 83 84 88 94 121 126 93 21 310 53 115 284 53 66 14 26 38 153 187 192 170 130 181 199 136 137 195 225 116 97 121 231 151 153 230 246 228 216 231 247 244 216 245 272 278 281 182 222 233 231 237 259 272 272 263 264 266 261 257 258 256 246 231 224 224 215 204 205 206 198 188
71 72 68 59 52 50 52 55 58 59 61 63 68 74 78 76 72 75 88 97 104 100 97 159 273 240 214 226 231 213 339 8 19 71 138 189 187 140 138 127 100 132 168 133 106 126 153 201 172 182 215 241 254 210 215 246 263 259 258 258 228 126 181 219 223 240 259 271 277 281 285 281 272 263 258 254 247 235 225 220 214 204 205 211 211 208 206
76 71 57 44 38 38 40 43 50 57 61 62 64 68 72 72 69 71 90 105 95 65 94 166 267 255 219 211 216 222 258 332 345 53 75 126 158 157 149 126 88 108 108 66 51 111 117 161 204 204 213 228 233 198 218 252 268 266 264 260 142 135 221 228 229 272 273 269 262 263 279 286 276 265 254 241 222 202 197 203 208 211 213 213 220 229 226
69 57 42 35 36 39 40 39 42 55 67 68 66 66 65 62 60 58 57 66 109 123 132 157 158 147 179 208 225 223 226 254 249 259 20 79 147 166 173 164 143 134 127 134 182 126 148 190 211 214 213 223 281 270 278 316 328 262 259 234 173 199 221 202 199 244 257 264 264 251 241 268 274 265 247 232 203 180 189 204 211 217 216 207 211 232 238
72 61 53 49 49 50 48 44 41 45 80 101 81 69 65 58 54 54 52 57 87 105 106 100 101 119 176 214 217 215 221 236 235 231 250 256 182 188 195 200 213 202 152 143 158 172 206 213 203 204 210 173 194 270 298 343 222 254 254 220 195 216 223 211 221 245 259 269 271 251 228 260 272 259 233 224 200 190 208 220 216 216 217 211 211 224 230
80 72 65 57 52 50 48 45 41 35 43 127 143 73 60 50 42 47 54 58 76 98 107 112 119 221 247 206 203 213 217 214 220 233 238 238 237 229 215 212 224 221 145 108 174 191 233 251 234 263 278 181 148 204 267 227 239 262 261 248 233 231 235 232 232 240 252 262 265 247 235 259 269 256 235 228 210 203 215 223 215 215 214 211 212 223 230
76 66 58 49 44 42 41 41 39 32 34 67 104 71 74 38 17 33 51 57 70 94 102 98 101 288 302 236 211 214 211 208 220 240 240 237 244 242 222 213 226 216 173 165 213 205 224 240 207 226 285 167 139 163 203 210 270 275 267 263 255 239 237 244 242 239 248 260 272 283 272 268 270 270 268 245 216 210 215 212 209 211 211 212 218 227 234
61 52 45 39 36 35 33 34 34 32 43 64 75 83 105 116 6 25 50 60 81 106 104 85 56 314 295 302 239 198 193 201 219 248 242 226 219 221 214 210 223 219 193 182 240 244 230 211 167 170 216 173 140 158 210 198 237 255 258 267 273 260 246 253 256 254 254 254 264 288 284 273 254 244 255 246 210 206 209 205 204 207 210 216 225 233 238
43 37 33 29 25 20 18 23 27 30 49 67 74 79 78 66 46 37 40 55 82 94 106 104 82 295 256 268 236 190 185 195 236 302 246 210 178 169 209 213 218 234 213 197 211 240 228 166 144 181 266 226 123 124 255 229 235 248 257 268 278 279 274 270 268 269 268 250 217 230 261 272 265 235 231 216 192 198 203 198 191 192 198 208 223 235 240
9 11 10 8 5 1 358 10 24 30 50 67 69 68 62 53 46 40 34 79 107 72 63 95 100 276 287 7 351 213 182 188 273 269 263 225 171 150 217 246 196 247 217 198 203 250 269 209 159 187 264 297 116 156 259 250 249 254 261 269 275 280 285 281 272 266 265 256 226 227 250 272 295 223 200 193 191 198 200 192 185 186 199 215 228 234 235
337 347 347 343 344 347 352 17 32 34 56 71 57 44 38 25 25 31 30 45 86 50 4 68 90 100 359 350 322 245 177 168 249 211 207 237 191 164 161 83 357 259 225 187 176 233 231 203 168 184 229 226 176 224 244 250 257 262 263 267 275 283 288 283 277 269 262 255 247 252 258 256 245 243 239 227 214 204 199 198 195 199 217 237 242 235 229
326 333 335 336 340 346 15 48 35 29 48 54 15 1 2 352 356 25 39 53 68 92 164 99 77 124 153 269 283 249 158 306 284 241 120 340 287 340 79 86 259 258 222 98 243 252 245 167 144 217 251 205 209 229 231 235 254 264 264 266 274 279 276 273 275 279 279 271 266 270 263 238 239 250 252 241 227 205 202 213 209 205 227 245 248 237 230
320 326 329 336 348 12 50 42 29 26 20 354 333 334 340 348 9 28 45 47 43 53 94 111 190 204 174 197 249 338 29 288 293 2 2 255 246 297 70 97 240 265 345 359 244 231 248 50 120 200 236 227 230 247 250 244 251 259 264 271 277 277 274 273 273 279 288 291 289 282 267 247 249 255 253 250 241 211 204 219 216 210 225 240 241 236 238
314 321 326 342 20 58 43 350 349 351 341 332 338 352 355 29 57 31 1 19 11 15 61 95 218 239 111 128 257 341 356 269 336 14 316 238 268 352 34 116 214 243 316 288 243 182 73 359 171 215 250 259 265 268 262 256 254 255 256 263 269 271 275 277 270 263 274 285 287 281 271 263 264 258 246 244 242 222 216 225 223 216 222 233 237 239 242
309 315 327 2 53 141 263 314 329 331 326 330 359 25 359 22 49 6 321 349 1 345 29 65 219 190 128 157 268 307 72 81 13 353 294 253 297 314 287 276 303 33 352 290 266 106 41 295 269 261 273 276 273 263 256 253 256 259 254 252 258 264 270 271 256 239 237 249 264 272 270 266 266 261 245 238 239 234 230 228 223 221 225 231 236 238 236
308 317 333 7 11 291 295 318 328 327 331 358 29 50 23 19 43 211 303 14 5 286 276 112 210 202 132 156 236 281 59 87 169 215 222 247 267 189 103 275 277 56 305 272 270 79 83 265 278 284 266 253 249 257 262 264 262 260 256 255 261 268 270 268 260 251 245 249 264 271 270 263 257 253 242 232 228 230 230 225 222 223 224 226 230 233 236
310 331 327 318 315 311 310 321 339 3 47 45 27 34 42 337 326 35 76 41 302 271 255 100 86 294 307 137 178 225 306 42 119 139 136 297 305 87 107 269 286 75 246 253 256 73 75 276 271 263 251 245 250 266 286 289 275 271 270 269 272 276 277 271 266 262 257 255 265 273 273 268 259 250 240 231 223 221 223 221 220 223 222 225 232 239 244
291 299 304 303 302 305 311 328 4 23 53 61 24 12 347 269 336 15 109 214 236 264 277 113 146 218 215 157 157 194 215 45 57 85 91 297 292 112 122 299 356 44 242 249 16 66 62 275 268 257 251 254 263 279 290 283 274 276 278 277 282 287 284 274 268 267 263 255 258 268 274 270 260 252 247 240 234 232 229 225 224 227 229 232 238 244 247
288 289 299 305 305 329 355 350 356 36 56 54 31 1 330 331 3 7 285 281 284 213 239 182 127 144 161 130 109 84 87 91 81 91 116 243 273 73 62 16 311 220 235 262 61 79 224 232 238 248 258 271 282 285 283 277 276 283 284 283 290 294 288 274 266 270 271 267 264 269 272 269 263 261 256 245 236 234 235 234 234 236 237 238 240 243 246
289 284 334 2 346 8 11 328 325 57 54 17 84 130 308 317 316 235 246 270 261 235 236 176 142 175 231 217 96 74 66 87 82 78 95 280 25 73 83 242 234 227 245 17 85 227 240 238 240 254 273 291 290 285 284 283 284 289 292 292 297 301 296 284 273 274 278 277 273 272 272 269 265 263 256 244 235 233 237 239 239 239 238 238 240 245 248
299 316 31 24 345 337 33 341 336 27 83 230 187 169 193 255 248 226 228 235 206 197 209 131 127 143 210 263 87 111 156 70 62 130 205 40 32 40 218 228 239 36 39 323 277 271 267 258 256 264 274 276 277 283 288 284 283 291 301 304 306 306 301 291 280 273 276 279 279 277 273 268 263 258 252 246 241 238 239 242 242 238 236 234 239 246 250
216 92 77 70 303 299 54 29 311 301 197 211 199 181 187 211 222 221 219 189 140 162 179 158 121 118 151 236 20 98 110 76 73 226 141 85 35 253 230 189 45 37 30 286 270 257 247 250 259 273 273 271 277 288 292 291 291 298 303 304 304 304 301 295 287 280 279 281 281 278 271 265 260 256 255 254 250 244 243 244 243 238 233 233 238 246 252
122 70 80 95 292 324 37 200 222 221 211 213 209 197 194 211 240 248 220 187 182 172 157 125 96 106 151 164 120 141 65 75 72 264 231 119 209 273 359 56 233 225 199 233 248 247 245 254 268 277 278 284 295 301 301 304 305 302 299 297 296 299 300 297 291 288 289 288 285 279 273 269 264 259 255 255 254 250 247 247 245 239 236 238 244 251 252
151 70 91 152 213 234 222 230 267 286 266 238 228 213 177 145 284 272 244 199 167 137 124 115 99 70 329 32 86 134 261 41 51 264 257 105 160 305 7 7 271 249 203 210 231 240 245 258 272 283 290 296 301 302 305 309 308 306 307 306 303 303 305 302 297 296 297 295 289 281 277 276 272 264 256 253 255 255 252 248 245 242 240 241 245 248 247
131 98 123 160 196 221 216 207 339 315 296 310 350 344 130 162 256 256 231 154 130 140 151 146 132 143 250 331 65 81 246 234 195 268 356 38 213 227 186 238 273 272 240 222 230 243 253 267 285 295 297 298 301 302 303 305 306 307 308 306 304 306 306 303 301 302 302 299 293 288 287 285 279 267 255 250 254 258 256 249 244 243 243 243 244 246 248
103 122 187 187 227 253 242 143 16 298 298 324 336 288 200 209 256 245 186 150 128 90 81 76 82 106 145 23 45 21 263 238 153 113 185 225 211 198 189 224 239 241 234 229 233 247 264 281 299 306 306 308 311 310 308 310 310 309 308 307 307 307 306 303 303 303 303 302 300 296 293 289 280 269 259 254 255 259 258 250 243 242 244 246 246 248 250
10 293 248 224 211 209 194 165 245 267 279 300 298 248 189 188 239 216 173 149 109 77 85 181 133 70 53 29 105 207 250 235 108 131 230 231 193 158 184 228 235 235 243 255 258 262 277 291 298 302 309 315 315 311 310 310 307 305 307 310 311 311 310 308 307 305 304 305 305 301 295 291 285 279 271 262 256 253 252 250 246 244 246 250 250 250 253
172 248 278 293 251 152 152 171 258 265 267 271 258 210 168 198 230 190 156 137 121 131 182 185 102 88 108 243 217 171 127 14 139 225 245 239 200 180 200 226 241 249 264 281 287 285 287 291 290 288 296 303 304 305 308 309 307 307 310 313 314 314 312 310 310 309 308 307 305 302 300 297 291 282 267 250 235 229 241 253 254 251 250 253 255 256 257